User: anonymous   Login
Location: Betra
(48.4113°N, 8.6634°E)
Time: 17:17:40
(UTC+00:00)
Language:

MSX - Orbit

View from above orbital plane
View from above orbital plane
View from above satellite
View from above satellite

Ground track
Ground track

The orbit data is extracted from the following two-line orbital elements,

1 23851U 96024A   24207.17921809  .00000253  00000-0  20756-3 0  9995
2 23851  98.9704 145.7247 0007349 353.3006   6.8058 13.98246983441606
Epoch (UTC): 25 July 2024 04:18:04
Eccentricity: 0.0007349
inclination: 98.9704°
perigee height: 894 km
apogee height: 905 km
right ascension of ascending node: 145.7247°
argument of perigee: 353.3006°
revolutions per day: 13.98246983
mean anomaly at epoch: 6.8058°
orbit number at epoch: 44160

The dashed part of the orbit path shows where the satellite is in the earth's shadow,  

DLR